This demonstration page uses our WeatherBlox Daily Observations layout. Learn more.

Left ArrowRight Arrow

Hourly Observations for July 11, 2018

Temp ( °F °C ) Dew Point ( °F °C ) Humidity (%) Winds ( mph kmh ) Pressure ( in mb ) Visibility ( mi km ) Precip ( " mm )
12:59 am 00:59 Clear 73 22.8 60 15.6 64 64 SSW 6 9 29.93 1013 10 16 0.00 0.00
1:59 am 01:59 Mostly Clear 74 23.3 61 16.1 64 64 SW 7 11 29.92 1013 10 16 0.00 0.00
2:59 am 02:59 Partly Cloudy 73 22.8 62 16.7 69 69 SSW 6 9 29.92 1013 10 16 0.00 0.00
3:59 am 03:59 Mostly Clear 75 23.9 63 17.2 66 66 SW 5 7 29.91 1013 10 16 0.00 0.00
4:59 am 04:59 Mostly Clear 73 22.8 63 17.2 71 71 SW 5 7 29.91 1013 10 16 0.00 0.00
5:59 am 05:59 Partly Cloudy 73 22.8 64 17.8 74 74 SW 3 6 29.93 1013 9 14 0.00 0.00
6:59 am 06:59 Mostly Sunny 76 24.4 66 18.9 72 72 W 7 11 29.94 1014 8 13 0.00 0.00
7:59 am 07:59 Partly Cloudy 79 26.1 67 19.4 67 67 W 7 11 29.94 1014 8 13 0.00 0.00
8:59 am 08:59 Partly Cloudy 81 27.2 67 19.4 62 62 W 7 11 29.95 1014 8 13 0.00 0.00
9:59 am 09:59 Partly Cloudy 84 28.9 67 19.4 57 57 W 10 17 29.96 1015 8 13 0.00 0.00
10:59 am 10:59 Partly Cloudy 87 30.6 69 20.6 55 55 W 7 11 29.96 1015 8 13 0.00 0.00
11:59 am 11:59 Partly Cloudy 89 31.7 69 20.6 52 52 W 5 7 29.96 1015 8 13 0.00 0.00
12:59 pm 12:59 Partly Cloudy 90 32.2 69 20.6 50 50 NE 7 11 29.96 1014 9 14 0.00 0.00
1:59 pm 13:59 Partly Cloudy 91 32.8 69 20.6 49 49 N 7 11 29.95 1014 9 14 0.00 0.00
2:59 pm 14:59 Partly Cloudy 91 32.8 70 21.1 50 50 NNE 6 9 29.93 1014 9 14 0.00 0.00
3:59 pm 15:59 Partly Cloudy 88 31.1 73 22.8 61 61 NE 12 19 29.94 1014 9 14 0.00 0.00
4:39 pm 16:39 Mostly Cloudy with Thunderstorms 84 28.9 70 21.1 63 63 NE 13 20 29.94 1014 8 13 0.00 0.00
4:59 pm 16:59 Mostly Cloudy with Thunderstorms 85 29.4 71 21.7 63 63 N 9 15 29.94 1014 8 13 0.00 0.00
5:10 pm 17:10 Mostly Cloudy 85 29.4 71 21.7 63 63 N 13 20 29.94 1014 8 13 0.00 0.00
5:59 pm 17:59 Mostly Cloudy 84 28.9 71 21.7 65 65 NNE 9 15 29.94 1014 9 14 0.00 0.00
6:59 pm 18:59 Mostly Cloudy 83 28.3 70 21.1 65 65 ENE 5 7 29.95 1014 10 16 0.00 0.00
7:59 pm 19:59 Mostly Cloudy with Thunderstorms 82 27.8 73 22.8 74 74 E 7 11 29.95 1014 8 13 0.00 0.00
8:40 pm 20:40 Cloudy with Thunderstorms 79 26.1 76 24.4 90 90 NE 10 17 29.97 1015 3 4 0.08 2.03
8:48 pm 20:48 Cloudy with Thunderstorms 79 26.1 76 24.4 90 90 NE 10 17 30.00 1016 4 6 0.09 2.29
8:59 pm 20:59 Mostly Cloudy with Thunderstorms 77 25 73 22.8 88 88 NE 12 19 29.98 1015 8 13 0.09 2.29
9:13 pm 21:13 Mostly Cloudy 77 25 72 22.2 85 85 ENE 9 15 30.00 1016 9 14 0.00 0.00
9:59 pm 21:59 Mostly Cloudy 78 25.6 74 23.3 87 87 NE 8 13 30.00 1016 7 11 0.00 0.00
10:59 pm 22:59 Cloudy 78 25.6 74 23.3 87 87 ESE 7 11 30.00 1016 7 11 0.00 0.00
11:21 pm 23:21 Cloudy with Thunderstorms 78 25.6 74 23.3 87 87 VRB 3 6 30.03 1017 4 6 0.01 0.25
11:32 pm 23:32 Cloudy with Thunderstorms 77 25 74 23.3 90 90 SW 6 9 30.03 1017 3 4 0.05 1.27
11:59 pm 23:59 Cloudy with Thunderstorms 75 23.9 72 22.2 90 90 SSE 5 7 30.04 1017 3 5 0.14 3.56

Powered by AerisWeather